Location: �couen
(49.0206°N, 2.3831°E)
Time: 23:00:17
(UTC+00:00)

ATLAS 3B R/B - Pass Details

Date: 28 May 2022
Orbit: 976 x 1218 km, 63.8° (Epoch: 20 June)

Event Time Altitude Azimuth Distance (km) Brightness Sun altitude
Rises 23:03:52 0° 312° (NW) 3,993 6.6 -18.7°
Reaches altitude 10° 23:07:06 10° 299° (WNW) 3,066 5.6 -18.8°
Maximum altitude 23:12:35 23° 251° (WSW) 2,278 4.3 -19.0°
Enters shadow 23:16:04 17° 216° (SW) 2,657 4.4 -19.0°
